This is the latest recevied weather packets stored in our database for station/object KC3UTO. If no packets are shown the sender has not sent any weather packets the latest 10 day(s).
| Time | Temp. | Humidity | Pressure | Rain* | Wind** | Luminosity | Snow |
|---|---|---|---|---|---|---|---|
| 1788533709 | 27.78° C | 67% | 1012.7 hPa | 0 mm | - | 703 W/m² | - |
| 1788533405 | 27.78° C | 67% | 1012.6 hPa | 0 mm | - | 520 W/m² | - |
| 1788533101 | 27.78° C | 68% | 1012.6 hPa | 0 mm | - | 352 W/m² | - |
| 1788532796 | 27.22° C | 68% | 1012.8 hPa | 0 mm | - | 703 W/m² | - |
| 1788532492 | 27.22° C | 69% | 1012.5 hPa | 0 mm | - | 282 W/m² | - |
| 1788532188 | 27.22° C | 68% | 1012.7 hPa | 0 mm | - | 594 W/m² | - |
| 1788531885 | 27.78° C | 66% | 1012.5 hPa | 0 mm | - | 615 W/m² | - |
| 1788531584 | 27.78° C | 67% | 1012.5 hPa | 0 mm | - | 353 W/m² | - |
| 1788531279 | 27.78° C | 68% | 1012.7 hPa | 0 mm | - | 596 W/m² | - |
| 1788530976 | 27.22° C | 69% | 1012.6 hPa | 0 mm | - | 596 W/m² | - |
| 1788530675 | 27.22° C | 69% | 1012.5 hPa | 0 mm | - | 546 W/m² | - |
| 1788530374 | 27.22° C | 68% | 1012.4 hPa | 0 mm | - | 545 W/m² | - |
| 1788530074 | 26.67° C | 70% | 1012.6 hPa | 0 mm | - | 545 W/m² | - |
| 1788529771 | 26.67° C | 70% | 1012.5 hPa | 0 mm | - | 510 W/m² | - |
| 1788529470 | 26.67° C | 71% | 1012.6 hPa | 0 mm | - | 503 W/m² | - |
| 1788529166 | 26.67° C | 71% | 1012.6 hPa | 0 mm | - | 482 W/m² | - |
| 1788528860 | 26.67° C | 71% | 1012.6 hPa | 0 mm | - | 108 W/m² | - |
| 1788528556 | 26.67° C | 71% | 1013 hPa | 0 mm | - | 432 W/m² | - |
| 1788528251 | 26.67° C | 71% | 1012.6 hPa | 0 mm | - | 397 W/m² | - |
| 1788527950 | 26.67° C | 71% | 1012.7 hPa | 0 mm | - | 381 W/m² | - |
| 1788527645 | 26.11° C | 73% | 1012.7 hPa | 0 mm | - | 363 W/m² | - |
| 1788527341 | 26.11° C | 74% | 1012.8 hPa | 0 mm | - | 329 W/m² | - |
| 1788527040 | 26.11° C | 74% | 1012.6 hPa | 0 mm | - | 309 W/m² | - |
| 1788526735 | 26.11° C | 73% | 1012.8 hPa | 0 mm | - | 292 W/m² | - |
| 1788526431 | 26.11° C | 73% | 1012.6 hPa | 0 mm | - | 281 W/m² | - |
* Rain latest hour (hover to see other rain measurements)
** Current wind speed in m/s (hover to see current wind gust speed)